Regional Weather Roundup
Issued by NWS Memphis, TN

Home | Current Version | Previous Version | Text Only | Print | Product List | Glossary On
Versions: 1 2 3 4 5 6 7 8 9 10 11 12 13 14 15 16 17 18 19 20 21 22 23 24 25 26 27 28 29 30 31 32 33 34 35 36 37 38 39 40 41 42 43 44 45 46 47 48 49 50
000
ASUS44 KMEG 241510
RWRMEG
MEMPHIS CWA HOURLY WEATHER ROUNDUP
NATIONAL WEATHER SERVICE MEMPHIS TN
1000 AM CDT SAT JUN 24 2017

...WEST TENNESSEE...

CITY           SKY/WX    TMP DP  RH WIND       PRES   REMARKS
MEMPHIS INTL   CLOUDY    77  63  61 N12       30.10R
NWS MEMPHIS      N/A     75 N/A N/A MISG        N/A
JACKSON        PTSUNNY   77  63  61 N10       30.09R
COVINGTON      SUNNY     75  64  69 N9        30.10R
SOMERVILLE     SUNNY     75  61  60 N10       30.08R
BOLIVAR        SUNNY     75  61  60 N8        30.07R
LEXINGTON      SUNNY     75  61  60 NE10      30.06S
SELMER         SUNNY     75  66  73 N8        30.06R
SAVANNAH       SUNNY     79  66  65 N12       30.04S
UNION CITY     SUNNY     75  61  60 N6        30.09R
PARIS          SUNNY     73  63  68 N7        30.08R
HUNTINGDON     SUNNY     75  61  60 N8        30.07S


...EASTERN ARKANSAS...

CITY           SKY/WX    TMP DP  RH WIND       PRES   REMARKS
JONESBORO      CLOUDY    73  62  68 N5        30.12R
WEST MEMPHIS   PTSUNNY   74  65  73 NE9       30.09R
BATESVILLE     CLOUDY    70  63  78 CALM      30.16R
WALNUT RIDGE   PTSUNNY   73  61  64 N12       30.13S
BLYTHEVILLE    MOSUNNY   75  65  70 N10       30.11R
STUTTGART      CLOUDY   N/A N/A N/A N12       30.13R
PINE BLUFF     CLOUDY    73  63  70 N14       30.13R
MONTICELLO     CLOUDY    76  67  73 N6        30.09S


...NORTH MISSISSIPPI...

CITY           SKY/WX    TMP DP  RH WIND       PRES   REMARKS
TUPELO         CLOUDY    78  69  73 NW9       30.03R
OXFORD         CLOUDY    75  66  73 N5        30.09R
BATESVILLE     MOSUNNY   78  67  69 N7        30.08R
TUNICA           N/A     73  64  73 N12G17    30.10S
CLARKSDALE       N/A     77  70  78 N10       30.08S
CORINTH        CLOUDY    79  66  65 N9        30.05R
GREENWOOD      CLOUDY    78  71  79 N5        30.05S
COLUMBUS       CLOUDY    76  76 100 N8        30.01R
STARKVILLE     CLOUDY    73  72  94 NW3       30.04S
GOLDEN TRIANGL CLOUDY    75  68  78 NW7       29.99R


...SOUTHEAST MISSOURI...

CITY           SKY/WX    TMP DP  RH WIND       PRES   REMARKS
KENNETT        MOSUNNY   73  61  64 NW7       30.11R
MALDEN         MOSUNNY   75  59  57 NW8       30.12R
WEST PLAINS    MOSUNNY   73  55  53 N9        30.19R
POPLAR BLUFF   MOSUNNY   75  60  59 N9        30.11R
CAPE GIRARDEAU SUNNY     75  57  53 NW9       30.10R


...NORTHWEST ALABAMA...

CITY           SKY/WX    TMP DP  RH WIND       PRES   REMARKS
MUSCLE SHOALS  CLOUDY    80  65  59 N5        30.04R


...MIDDLE TENNESSEE...

CITY           SKY/WX    TMP DP  RH WIND       PRES   REMARKS
NASHVILLE      PTSUNNY   79  64  60 N9        30.04S
CLARKSVILLE    CLOUDY    74  59  59 N7        30.07R
COLUMBIA       SUNNY     77  64  65 VRB6      30.02S


...WESTERN KENTUCKY...

CITY           SKY/WX    TMP DP  RH WIND       PRES   REMARKS
PADUCAH        SUNNY     76  59  55 N7        30.08R
FORT CAMPBELL  MOSUNNY   74  60  60 N8        30.07R


...CENTRAL ARKANSAS...

CITY           SKY/WX    TMP DP  RH WIND       PRES   REMARKS
LITTLE ROCK    CLOUDY    73  64  73 N7        30.15R


SKY/WX REPORTED AS FAIR MEANS FEW OR NO CLOUDS BELOW
12 THOUSAND FEET.





USA.gov is the U.S. government's official web portal to all federal, state and local government web resources and services.